Location: Apeadero de Los Molinos-Guadarrama
(40.7091°N, 4.0689°W)
Time: 12:59:26
(UTC+00:00)

Cosmos 2278 Rocket - Pass Details

Date: 14 May 2021
Orbit: 841 x 845 km, 71.0° (Epoch: 18 June)

Event Time Altitude Azimuth Distance (km) Brightness Sun altitude
Rises 21:14:14 0° 215° (SW) 3,383 5.2 -17.5°
Reaches altitude 10° 21:16:43 10° 219° (SW) 2,452 4.5 -17.8°
Maximum altitude 21:22:13 55° 297° (WNW) 1,004 2.9 -18.5°
Drops below altitude 10° 21:27:47 10° 15° (NNE) 2,466 5.0 -19.2°
Sets 21:30:18 0° 20° (NNE) 3,405 5.8 -19.5°
